When you browse on this site, cookies collect data to enhance your experience and personalize the content and advertising you see.
Visit our Privacy Policy to learn more. By continuing to use the site, you agree to this use of cookies and data.
  • In Romania
  • List of Countries
  • For 7 days
  • Water Temperature
  • Satellite Maps
  • Weather Map
  • Weather Widgets
  • user-avatar
    Login

    Hourly Weather Eremkino

    Today, 25 April, Thursday

    Time Temperature Precipitation Wind Pressure Humidity
    00:00 +13°C° 0 mm 1 mps 756 mmHg 63%
    01:00 +12°C° 0 mm 1 mps 756 mmHg 65%
    02:00 +10°C° 0 mm 0 mps 755 mmHg 69%
    03:00 +10°C° 0 mm 0 mps 755 mmHg 70%
    04:00 +11°C° 0 mm 1 mps 755 mmHg 71%
    05:00 +11°C° 0 mm 1 mps 755 mmHg 72%
    06:00 +13°C° 0 mm 1 mps 755 mmHg 65%
    07:00 +15°C° 0 mm 1 mps 755 mmHg 59%
    08:00 +18°C° 0 mm 1 mps 755 mmHg 52%
    09:00 +20°C° 0 mm 1 mps 755 mmHg 47%
    10:00 +22°C° 0 mm 1 mps 755 mmHg 42%
    11:00 +24°C° 0 mm 1 mps 755 mmHg 37%
    12:00 +24°C° 0 mm 1 mps 755 mmHg 35%
    13:00 +25°C° 0 mm 1 mps 754 mmHg 33%
    14:00 +25°C° 0 mm 1 mps 754 mmHg 30%
    15:00 +24°C° 0 mm 1 mps 754 mmHg 35%
    16:00 +23°C° 0 mm 1 mps 754 mmHg 40%
    17:00 +21°C° 0 mm 1 mps 754 mmHg 45%
    18:00 +20°C° 0 mm 1 mps 753 mmHg 46%
    19:00 +19°C° 0 mm 1 mps 753 mmHg 48%
    20:00 +16°C° 0 mm 0 mps 753 mmHg 50%
    21:00 +16°C° 0.1 mm 1 mps 753 mmHg 54%
    22:00 +15°C° 0.1 mm 1 mps 753 mmHg 57%
    23:00 +14°C° 0.1 mm 1 mps 753 mmHg 61%

    Tomorrow, 26 April, Friday

    Time Temperature Precipitation Wind Pressure Humidity
    00:00 +14°C° 0 mm 1 mps 753 mmHg 63%
    01:00 +13°C° 0 mm 1 mps 753 mmHg 65%
    02:00 +13°C° 0 mm 1 mps 754 mmHg 67%
    03:00 +13°C° 0 mm 1 mps 753 mmHg 69%
    04:00 +12°C° 0 mm 1 mps 753 mmHg 72%
    05:00 +12°C° 0 mm 1 mps 753 mmHg 75%
    06:00 +14°C° 0.1 mm 1 mps 753 mmHg 71%
    07:00 +15°C° 0.1 mm 1 mps 753 mmHg 67%
    08:00 +18°C° 0.1 mm 1 mps 753 mmHg 62%
    09:00 +18°C° 0 mm 2 mps 753 mmHg 56%
    10:00 +20°C° 0 mm 2 mps 753 mmHg 50%
    11:00 +21°C° 0 mm 2 mps 753 mmHg 43%
    12:00 +23°C° 0 mm 2 mps 752 mmHg 42%
    13:00 +23°C° 0 mm 2 mps 752 mmHg 40%
    14:00 +23°C° 0 mm 2 mps 752 mmHg 39%
    15:00 +23°C° 0 mm 1 mps 751 mmHg 40%
    16:00 +22°C° 0 mm 1 mps 751 mmHg 40%
    17:00 +22°C° 0 mm 1 mps 751 mmHg 41%
    18:00 +21°C° 0 mm 1 mps 750 mmHg 45%
    19:00 +18°C° 0 mm 2 mps 750 mmHg 50%
    20:00 +17°C° 0 mm 2 mps 750 mmHg 54%
    21:00 +16°C° 0 mm 2 mps 750 mmHg 55%
    22:00 +16°C° 0 mm 2 mps 750 mmHg 57%
    23:00 +15°C° 0 mm 2 mps 749 mmHg 58%

    Day after tomorrow, 27 April, Saturday

    Time Temperature Precipitation Wind Pressure Humidity
    00:00 +14°C° 0 mm 2 mps 749 mmHg 60%
    01:00 +13°C° 0 mm 2 mps 749 mmHg 63%
    02:00 +13°C° 0 mm 1 mps 748 mmHg 66%
    03:00 +13°C° 0 mm 2 mps 748 mmHg 67%
    04:00 +13°C° 0 mm 2 mps 748 mmHg 68%
    05:00 +13°C° 0 mm 2 mps 747 mmHg 69%
    06:00 +15°C° 0 mm 2 mps 747 mmHg 65%
    07:00 +16°C° 0 mm 3 mps 747 mmHg 60%
    08:00 +18°C° 0 mm 3 mps 746 mmHg 55%
    09:00 +19°C° 0 mm 4 mps 746 mmHg 49%
    10:00 +21°C° 0 mm 4 mps 745 mmHg 44%
    11:00 +22°C° 0 mm 5 mps 745 mmHg 38%
    12:00 +22°C° 0 mm 5 mps 744 mmHg 37%
    13:00 +23°C° 0 mm 4 mps 744 mmHg 37%
    14:00 +23°C° 0 mm 4 mps 744 mmHg 36%
    15:00 +24°C° 0 mm 3 mps 743 mmHg 37%
    16:00 +24°C° 0 mm 3 mps 743 mmHg 39%
    17:00 +23°C° 0 mm 2 mps 742 mmHg 40%
    18:00 +20°C° 0 mm 2 mps 742 mmHg 48%
    19:00 +18°C° 0 mm 2 mps 742 mmHg 56%
    20:00 +16°C° 0 mm 2 mps 742 mmHg 64%
    21:00 +15°C° 0.4 mm 2 mps 742 mmHg 73%
    22:00 +13°C° 0.4 mm 3 mps 742 mmHg 82%
    23:00 +12°C° 0.4 mm 3 mps 742 mmHg 90%

    28 April, Sunday

    Time Temperature Precipitation Wind Pressure Humidity
    00:00 +12°C° 0.5 mm 3 mps 743 mmHg 89%
    01:00 +11°C° 0.5 mm 4 mps 743 mmHg 88%
    02:00 +10°C° 0.5 mm 5 mps 743 mmHg 87%
    03:00 +9°C° 0.1 mm 5 mps 744 mmHg 86%
    04:00 +7°C° 0.1 mm 5 mps 744 mmHg 85%
    05:00 +6°C° 0.1 mm 5 mps 745 mmHg 83%
    06:00 +5°C° 0 mm 6 mps 746 mmHg 78%
    07:00 +4°C° 0 mm 6 mps 747 mmHg 73%
    08:00 +3°C° 0 mm 6 mps 748 mmHg 68%
    09:00 +4°C° 0 mm 6 mps 748 mmHg 59%
    10:00 +5°C° 0 mm 6 mps 749 mmHg 51%
    11:00 +7°C° 0 mm 5 mps 750 mmHg 43%
    12:00 +7°C° 0 mm 5 mps 750 mmHg 41%
    13:00 +8°C° 0 mm 5 mps 750 mmHg 40%
    14:00 +8°C° 0 mm 5 mps 750 mmHg 38%
    15:00 +8°C° 0 mm 5 mps 750 mmHg 38%
    16:00 +7°C° 0 mm 5 mps 751 mmHg 39%
    17:00 +7°C° 0 mm 5 mps 751 mmHg 39%
    18:00 +5°C° 0 mm 4 mps 752 mmHg 43%
    19:00 +4°C° 0 mm 3 mps 752 mmHg 48%
    20:00 +2°C° 0 mm 3 mps 753 mmHg 52%
    21:00 +2°C° 0 mm 3 mps 753 mmHg 55%
    22:00 +1°C° 0 mm 3 mps 754 mmHg 57%
    23:00 +2°C° 0 mm 2 mps 754 mmHg 60%

    29 April, Monday

    Time Temperature Precipitation Wind Pressure Humidity
    00:00 +1°C° 0 mm 2 mps 754 mmHg 62%
    01:00 +1°C° 0 mm 2 mps 755 mmHg 64%
    02:00 -1°C° 0 mm 2 mps 755 mmHg 66%
    03:00 -1°C° 0 mm 2 mps 755 mmHg 66%
    04:00 -1°C° 0 mm 2 mps 755 mmHg 67%
    05:00 -1°C° 0 mm 2 mps 756 mmHg 68%
    06:00 0°C° 0 mm 3 mps 756 mmHg 60%
    07:00 +2°C° 0 mm 3 mps 756 mmHg 51%
    08:00 +3°C° 0 mm 3 mps 756 mmHg 43%
    09:00 +4°C° 0 mm 3 mps 756 mmHg 40%
    10:00 +5°C° 0 mm 3 mps 756 mmHg 37%
    11:00 +7°C° 0 mm 3 mps 756 mmHg 35%
    12:00 +8°C° 0 mm 3 mps 756 mmHg 34%
    13:00 +8°C° 0 mm 3 mps 756 mmHg 34%
    14:00 +9°C° 0 mm 3 mps 755 mmHg 33%
    15:00 +8°C° 0 mm 3 mps 755 mmHg 35%
    16:00 +8°C° 0 mm 3 mps 755 mmHg 36%
    17:00 +8°C° 0 mm 3 mps 755 mmHg 38%
    18:00 +6°C° 0 mm 2 mps 755 mmHg 43%
    19:00 +5°C° 0 mm 2 mps 755 mmHg 49%
    20:00 +3°C° 0 mm 2 mps 755 mmHg 55%
    21:00 +3°C° 0 mm 1 mps 756 mmHg 56%
    22:00 +3°C° 0 mm 1 mps 756 mmHg 57%
    23:00 +2°C° 0 mm 1 mps 756 mmHg 58%

    30 April, Tuesday

    Time Temperature Precipitation Wind Pressure Humidity
    00:00 +1°C° 0 mm 1 mps 756 mmHg 59%
    01:00 0°C° 0 mm 0 mps 756 mmHg 59%
    02:00 -1°C° 0 mm 0 mps 756 mmHg 60%
    03:00 0°C° 0 mm 0 mps 756 mmHg 58%
    04:00 0°C° 0 mm 0 mps 756 mmHg 57%
    05:00 0°C° 0 mm 0 mps 756 mmHg 55%
    06:00 +3°C° 0 mm 1 mps 756 mmHg 49%
    07:00 +6°C° 0 mm 1 mps 756 mmHg 42%
    08:00 +8°C° 0 mm 1 mps 756 mmHg 36%
    09:00 +9°C° 0 mm 1 mps 756 mmHg 34%
    10:00 +10°C° 0 mm 1 mps 756 mmHg 32%
    11:00 +12°C° 0 mm 1 mps 756 mmHg 30%
    12:00 +12°C° 0 mm 1 mps 755 mmHg 30%
    13:00 +13°C° 0 mm 1 mps 755 mmHg 29%
    14:00 +14°C° 0 mm 1 mps 754 mmHg 28%
    15:00 +12°C° 0 mm 0 mps 754 mmHg 29%
    16:00 +12°C° 0 mm 0 mps 754 mmHg 30%
    17:00 +11°C° 0 mm 0 mps 753 mmHg 31%
    18:00 +9°C° 0 mm 0 mps 753 mmHg 36%
    19:00 +7°C° 0 mm 0 mps 753 mmHg 41%
    20:00 +6°C° 0 mm 1 mps 753 mmHg 45%
    21:00 +6°C° 0 mm 1 mps 753 mmHg 48%
    22:00 +5°C° 0 mm 1 mps 753 mmHg 50%
    23:00 +4°C° 0 mm 1 mps 753 mmHg 52%
    Show more